Location: Oshawa
(43.9000°N, 78.8670°W)
Time: 02:39:23
(UTC-04:00)

Thor Agena Rocket - Visible Passes

Search period start: 29 July 2014 00:00
Search period end: 08 August 2014 00:00
Orbit: 761 x 810 km, 99.0° (Epoch: 28 July)

Date Brightness Start Highest point End Pass type
(mag) Time Alt. Az. Time Alt. Az. Time Alt. Az.
29 Jul 6.0 00:33:17 10° ENE 00:35:11 12° NE 00:37:06 10° NNE visible
29 Jul 3.4 02:13:26 79° ESE 02:13:41 82° ENE 02:18:48 10° NNW visible
29 Jul 5.5 03:54:04 12° W 03:54:04 12° W 03:55:43 10° WNW visible
30 Jul 4.3 01:42:14 41° E 01:42:55 43° ENE 01:47:45 10° N visible
30 Jul 4.8 03:22:52 24° W 03:22:52 24° W 03:26:33 10° NW visible
31 Jul 5.2 01:11:03 22° E 01:12:19 24° ENE 01:16:21 10° N visible
31 Jul 4.0 02:51:40 45° W 02:51:40 45° W 02:56:17 10° NNW visible
01 Aug 5.9 00:39:51 11° E 00:41:51 14° ENE 00:44:19 10° NNE visible
01 Aug 3.4 02:20:28 87° WNW 02:20:28 87° WNW 02:25:35 10° NNW visible
01 Aug 5.7 04:01:06 10° W 04:01:06 10° W 04:01:34 10° WNW visible
02 Aug 4.1 01:49:17 48° E 01:49:38 49° ENE 01:54:35 10° N visible
02 Aug 5.0 03:29:54 21° W 03:29:54 21° W 03:33:07 10° NW visible
03 Aug 5.0 01:18:05 26° E 01:19:00 27° ENE 01:23:16 10° N visible
03 Aug 4.2 02:58:43 39° W 02:58:43 39° W 03:02:59 10° NNW visible
04 Aug 5.7 00:46:53 14° E 00:48:31 16° ENE 00:51:26 10° NNE visible
04 Aug 3.5 02:27:31 74° WNW 02:27:31 74° WNW 02:32:21 10° NNW visible
05 Aug 3.9 01:56:19 56° ENE 01:56:22 56° ENE 02:01:24 10° N visible
05 Aug 5.2 03:36:57 18° WNW 03:36:57 18° WNW 03:39:39 10° NW visible
06 Aug 4.8 01:25:08 30° ENE 01:25:42 30° ENE 01:30:10 10° N visible
06 Aug 4.5 03:05:45 34° WNW 03:05:45 34° WNW 03:09:39 10° NNW visible
07 Aug 5.6 00:53:56 16° ENE 00:55:11 17° ENE 00:58:29 10° NNE visible
07 Aug 3.7 02:34:34 62° WNW 02:34:34 62° WNW 02:39:06 10° NNW visible
